Home   Weather   Township of Fairfield   Past weeks
Flag for USA

Past Weather in Township of Fairfield, Ohio, USA — Yesterday and Last 2 Weeks

Now
36 °F

Partly sunny.


Feels Like: 28 °F
Forecast: 38 / 30 °F
Wind: 10 mph from West

Location: Youngstown-Warren Regional Airport

Current Time: Dec 5, 2019 at 5:13:47 pm

Latest Report: Dec 5, 2019 at 3:51 pm


Visibility: 10 mi

Pressure: 30.06 "Hg

Humidity: 67%

Dew Point: 26 °F

Location of Township of FairfieldLocation

Past Weather in Township of Fairfield — Graph

°F

Township of Fairfield Temperature Yesterday

Maximum temperature yesterday: 35 °F (at 12:01 pm)
Minimum temperature yesterday: 32 °F (at 10:51 pm)
Average temperature yesterday: 34 °F

High & Low Weather Summary for the Past Weeks

 TemperatureHumidityPressure
High59 °F (Nov 26, 1:51 pm)93% (Dec 1, 9:51 am)30.43 "Hg (Dec 1, 9:51 am)
Low22 °F (Nov 23, 4:51 am)48% (Nov 26, 1:51 pm)29.36 "Hg (Dec 1, 8:37 am)
Average38 °F76%29.85 "Hg
* Reported Nov 20 3:51 pm — Dec 5 3:51 pm, Township of Fairfield. Weather by CustomWeather, © 2019

Note: Actual official high and low records may vary slightly from our data, if they occured in-between our weather recording intervals... More about our weather records

Township of Fairfield Weather History for the Previous 24 Hours

Scroll right to see more
 ConditionsComfort  
Time TempWeatherWind HumidityBarometerVisibility
3:51 pm
Thu, Dec 5
36 °FPartly sunny.10 mph67%30.06 "Hg10 mi
3:34 pm36 °FPartly sunny.9 mph64%30.03 "Hg10 mi
2:51 pm36 °FOvercast.8 mph67%30.04 "Hg10 mi
1:51 pm35 °FMostly cloudy.10 mph70%30.03 "Hg9 mi
12:51 pm34 °FLight snow. Overcast.10 mph73%30.01 "Hg9 mi
12:21 pm34 °FLight snow. Mostly cloudy.12 mph73%29.98 "Hg10 mi
11:51 am34 °FMore clouds than sun.12 mph73%30.01 "Hg9 mi
11:26 am34 °FLight snow. Mostly cloudy.10 mph73%29.98 "Hg9 mi
10:51 am33 °FMostly cloudy.13 mph75%30.01 "Hg10 mi
9:51 am33 °FOvercast.10 mph78%29.98 "Hg10 mi
8:51 am32 °FOvercast.13 mph82%29.96 "Hg10 mi
7:51 am32 °FLight snow. Low clouds.10 mph85%29.93 "Hg9 mi
7:37 am32 °FLight snow. Mostly cloudy.9 mph85%29.89 "Hg9 mi
7:12 am32 °FLight snow. Mostly cloudy.7 mph85%29.88 "Hg7 mi
7:07 am32 °FSleet. Ice fog.7 mph85%29.88 "Hg5 mi
6:07 am32 °FLight snow. Ice fog.9 mph85%29.85 "Hg5 mi
5:51 am32 °FLight snow. Ice fog.13 mph85%29.87 "Hg2 mi
4:51 am32 °FLight snow. Low clouds.10 mph85%29.85 "Hg9 mi
3:51 am32 °FLight snow. Mostly cloudy.12 mph85%29.82 "Hg10 mi
3:42 am32 °FLight snow. Ice fog.14 mph85%29.78 "Hg5 mi
3:34 am32 °FLight snow. Ice fog.13 mph85%29.78 "Hg2 mi
3:11 am32 °FMostly cloudy.13 mph85%29.76 "Hg10 mi
2:51 am32 °FMostly cloudy.13 mph85%29.78 "Hg10 mi
2:36 am32 °FMostly cloudy.9 mph85%29.75 "Hg10 mi
1:51 am32 °FOvercast.12 mph82%29.75 "Hg10 mi
12:51 am32 °FPartly cloudy.10 mph85%29.73 "Hg9 mi
12:10 am32 °FLight snow. Ice fog.12 mph88%29.68 "Hg4 mi
11:23 pm
Wed, Dec 4
32 °FLight snow. Ice fog.13 mph88%29.66 "Hg3 mi
10:51 pm32 °FLight snow. Ice fog.12 mph88%29.68 "Hg2 mi
9:51 pm33 °FLight snow. Fog.9 mph88%29.65 "Hg2 mi
9:12 pm33 °FLight snow. Fog.12 mph88%29.61 "Hg1 mi
8:51 pm33 °FLight snow. Fog.9 mph88%29.63 "Hg2 mi
7:51 pm34 °FLight snow. Mostly cloudy.12 mph82%29.61 "Hg2 mi
6:51 pm34 °FLight snow. Mostly cloudy.14 mph82%29.59 "Hg8 mi
6:20 pm34 °FLight snow. Mostly cloudy.13 mph82%29.56 "Hg6 mi
6:06 pm34 °FLight snow. Overcast.12 mph82%29.56 "Hg2 mi
5:51 pm34 °FLight snow. Overcast.13 mph82%29.58 "Hg1 mi
5:21 pm34 °FLight snow. Overcast.14 mph82%29.55 "Hg2 mi
Weather by CustomWeather, © 2019

See weather overview

Advertising